Weather History for Romorantin, France

Change the Weather History Date:

Tuesday, March 5, 2013

  Actual Average (LFOT) Record (LFOT)
Temperature  
Mean Temperature 53 °F -  
Max Temperature 60 °F 49 °F 60 °F (2003)
Min Temperature 46 °F 36 °F 23 °F (2006)
Degree Days  
Heating Degree Days 12    
Growing Degree Days 3 (Base 50)    
Moisture  
Dew Point 37 °F    
Average Humidity 56    
Maximum Humidity 66    
Minimum Humidity 45    
Precipitation  
Precipitation 0.00 in - - ()
Sea Level Pressure  
Sea Level Pressure 29.64 in    
Wind  
Wind Speed 10 mph ()    
Max Wind Speed 15 mph    
Max Gust Speed -    
Averages and records for this station are not official NWS values.
T = Trace of Precipitation, MM = Missing Value Source: Averaged Metar Reports

Daily Weather History Graph

Daily Weather History Graph

Search for Another Location

Airport:

Trip Planner

Search our weather history database for the weather conditions in past years. The results will help you decide how hot, cold, wet, or windy it might be!

Date:

Astronomy

Mar. 05, 2013 Rise Set
Actual Time 7:25 AM CET 6:44 PM CET
Civil Twilight 6:55 AM CET 7:15 PM CET
Nautical Twilight 6:19 AM CET 7:50 PM CET
Astronomical Twilight 5:44 AM CET 8:26 PM CET
Moon 2:40 AM CET (3/5) 11:50 AM CET (3/5)
Length of Visible Light 12h 19m
Length of Day
11h 18m
Last Quarter, 44% of the Moon is Illuminated
Mar 5
Last Quarter
Mar 11
New
Mar 19
First Quarter
Mar 27
Full
Apr 3
Last Quarter

Hourly Weather History & Observations

Time (CET) Temp. Windchill Dew Point Humidity Pressure Visibility Wind Dir Wind Speed Gust Speed Precip Events Conditions
12:00 AM 48.2 °F - 35.6 °F 62% 29.74 in - ESE 11.5 mph - N/A   Unknown
1:00 AM 46.4 °F 41.9 °F 35.6 °F 66% 29.74 in - ESE 9.2 mph - N/A   Unknown
2:00 AM 46.4 °F 41.9 °F 35.6 °F 66% 29.74 in - ESE 9.2 mph - N/A   Unknown
3:00 AM 46.4 °F 41.9 °F 35.6 °F 66% 29.71 in - ESE 9.2 mph - N/A   Unknown
4:00 AM 46.4 °F 40.7 °F 35.6 °F 66% 29.71 in - ESE 12.7 mph - N/A   Unknown
5:00 AM 46.4 °F 41.1 °F 33.8 °F 62% 29.68 in - ESE 11.5 mph - N/A   Unknown
6:00 AM 46.4 °F 41.1 °F 32.0 °F 57% 29.68 in - ESE 11.5 mph - N/A   Clear
7:00 AM 48.2 °F - 30.2 °F 50% 29.68 in - ESE 12.7 mph - N/A   Clear
8:00 AM 48.2 °F - 30.2 °F 50% 29.68 in - ESE 13.8 mph - N/A   Clear
9:00 AM 48.2 °F - 32.0 °F 54% 29.68 in - ESE 12.7 mph - N/A   Clear
11:00 AM 51.8 °F - 35.6 °F 54% 29.65 in - ESE 11.5 mph - N/A   Clear
1:00 PM 57.2 °F - 41.0 °F 55% 29.65 in - SE 13.8 mph - N/A   Clear
2:00 PM 59.0 °F - 39.2 °F 48% 29.62 in - SE 15.0 mph - N/A   Clear
3:00 PM 59.0 °F - 37.4 °F 45% 29.59 in - ESE 11.5 mph - N/A   Clear
4:00 PM 59.0 °F - 37.4 °F 45% 29.59 in - ESE 11.5 mph - N/A   Clear
5:00 PM 60.8 °F - 39.2 °F 45% 29.56 in - ESE 15.0 mph - N/A   Unknown
6:00 PM 59.0 °F - 39.2 °F 48% 29.56 in - ESE 11.5 mph - N/A   Unknown
7:00 PM 57.2 °F - 39.2 °F 51% 29.56 in - ESE 11.5 mph - N/A   Unknown
8:00 PM 55.4 °F - 41.0 °F 58% 29.56 in - SE 9.2 mph - N/A   Unknown
9:00 PM 55.4 °F - 41.0 °F 58% 29.56 in - SE 8.1 mph - N/A   Unknown
10:00 PM 53.6 °F - 41.0 °F 62% 29.59 in - ESE 8.1 mph - N/A   Unknown
11:00 PM 53.6 °F - 41.0 °F 62% 29.59 in - ESE 8.1 mph - N/A   Unknown